TimePST,TemperatureF,Dew PointF,Humidity,Sea Level PressureIn,VisibilityMPH,Wind Direction,Wind SpeedMPH,Gust SpeedMPH,PrecipitationIn,Events,Conditions,WindDirDegrees,DateUTC
12:56 AM,51.1,46.9,86,30.19,10.0,Calm,Calm,-,N/A,,Clear,0,2012-12-04 08:56:00
1:56 AM,51.1,48.0,89,30.20,10.0,Calm,Calm,-,N/A,,Clear,0,2012-12-04 09:56:00
2:56 AM,51.1,48.0,89,30.22,10.0,Calm,Calm,-,N/A,,Clear,0,2012-12-04 10:56:00
3:56 AM,51.1,48.0,89,30.22,10.0,South,3.5,-,N/A,,Clear,170,2012-12-04 11:56:00
4:56 AM,52.0,48.0,86,30.21,10.0,Calm,Calm,-,N/A,,Clear,0,2012-12-04 12:56:00
5:56 AM,53.1,48.0,83,30.22,10.0,Calm,Calm,-,N/A,,Clear,0,2012-12-04 13:56:00
6:56 AM,52.0,48.9,89,30.22,10.0,Calm,Calm,-,N/A,,Clear,0,2012-12-04 14:56:00
7:56 AM,53.1,48.9,86,30.24,10.0,West,3.5,-,N/A,,Clear,280,2012-12-04 15:56:00
8:56 AM,55.0,50.0,83,30.24,10.0,Calm,Calm,-,N/A,,Clear,0,2012-12-04 16:56:00
9:56 AM,55.9,50.0,80,30.25,10.0,Calm,Calm,-,N/A,,Clear,0,2012-12-04 17:56:00
10:56 AM,57.9,51.1,78,30.24,10.0,SSE,4.6,-,N/A,,Clear,150,2012-12-04 18:56:00
11:56 AM,61.0,52.0,72,30.22,10.0,ESE,3.5,-,N/A,,Clear,110,2012-12-04 19:56:00
12:56 PM,64.0,51.1,63,30.20,10.0,ESE,6.9,-,N/A,,Clear,120,2012-12-04 20:56:00
1:56 PM,61.0,53.1,75,30.18,10.0,NNW,8.1,-,N/A,,Clear,340,2012-12-04 21:56:00
2:56 PM,60.1,51.1,72,30.19,10.0,NW,6.9,-,N/A,,Clear,320,2012-12-04 22:56:00
3:56 PM,60.1,53.1,78,30.21,10.0,North,4.6,-,N/A,,Partly Cloudy,350,2012-12-04 23:56:00
4:56 PM,59.0,53.1,81,30.22,10.0,Calm,Calm,-,N/A,,Overcast,0,2012-12-05 00:56:00
5:56 PM,60.1,48.0,64,30.20,10.0,SE,6.9,-,N/A,,Overcast,140,2012-12-05 01:56:00
6:56 PM,61.0,46.0,58,30.20,10.0,SE,6.9,-,N/A,,Overcast,140,2012-12-05 02:56:00
7:56 PM,60.1,46.9,62,30.20,10.0,SE,9.2,-,N/A,,Scattered Clouds,140,2012-12-05 03:56:00
8:56 PM,60.1,46.9,62,30.20,10.0,SSE,11.5,-,N/A,,Mostly Cloudy,150,2012-12-05 04:56:00
9:29 PM,60.8,46.4,59,30.19,10.0,SE,4.6,-,N/A,,Overcast,140,2012-12-05 05:29:00
9:56 PM,61.0,48.9,64,30.19,10.0,SSE,8.1,-,N/A,,Overcast,160,2012-12-05 05:56:00
10:56 PM,60.1,48.9,67,30.19,10.0,SE,12.7,-,N/A,,Overcast,130,2012-12-05 06:56:00
11:56 PM,61.0,53.1,75,30.18,10.0,SE,12.7,20.7,N/A,,Overcast,130,2012-12-05 07:56:00